Tracking 30160 objects as of 13-Feb-2025
HD Live streaming from Space Station
objects crossing your sky now

STARLINK-4321

Track STARLINK-4321 now!
10-day predictions
STARLINK-4321 is classified as:


NORAD ID: 53082
Int'l Code: 2022-077AR
Perigee: 568.3 km
Apogee: 572.0 km
Inclination: 97.7 °
Period: 95.9 minutes
Semi major axis: 6941 km
RCS: Unknown
Launch date: July 11, 2022
Source: United States (US)
Launch site: AIR FORCE WESTERN TEST RANGE (AFWTR)
Your satellite tracking list
Your tracking list is empty




NASA's NSSDC Master Catalog

Two Line Element Set (TLE):
1 53082U 22077AR  25044.47072252  .00000353  00000-0  32096-4 0  9995
2 53082  97.6550 227.8527 0002649 195.1517 164.9628 15.01259964142527
Source of the keplerian elements: AFSPC